Volver al catálogo

STARLINK-31371

ActivoComunicacionesVLEO
NORAD 58940·PAYLOAD·🇺🇸 United States

Lanzado Feb 10, 2024 desde Vandenberg Space Force Base

Loading…

Próximos Pases (próximas 24 horas)

TLE

ActualizadoSource: CelesTrak SupGP

Época: Sep 14, 2026, 22:43 UTC

1 58940C 24027K   26257.94701389 -.00041627  00000+0 -12299-2 0  2577
2 58940  53.1586 149.9346 0001336  80.8470 259.5863 15.34411219    12

Sigue STARLINK-31371 en tiempo real con AllMySat

Download on the App Store